Tracking 19248 objects as of 26-Sep-2018
HD Live streaming from Space Station
objects crossing your sky now

FENGYUN 1C DEB

Track FENGYUN 1C DEB now!
10-day predictions


NORAD ID: 38136
Int'l Code: 1999-025EQH
Perigee: 839.0 km
Apogee: 1,070.7 km
Inclination: 98.6 °
Period: 104.0 minutes
Semi major axis: 7325 km
RCS: 0.015 m2 (small)
Launch date: May 10, 1999
Source: People's Republic of China (PRC)
Launch site: Taiyaun Space Center, China (TSC)

Note: This is SATELLITE DEBRIS
aabbcc
Your satellite tracking list
Your tracking list is empty




NASA's NSSDC Master Catalog

Two Line Element Set (TLE):
1 38136U 99025EQH 18266.83763239 +.00000654 +00000-0 +55910-3 0  9998
2 38136 098.5778 288.6859 0158150 124.7198 236.8971 13.84578731454988
Source of the keplerian elements: AFSPC